Location: Newark
(22.3060°N, 114.2134°E)
Time: 02:51:37
(UTC+00:00)

Vanguard 2 - Pass Details

Date: 04 August 2021
Orbit: 552 x 2937 km, 32.9° (Epoch: 21 September)

Event Time Altitude Azimuth Distance (km) Brightness Sun altitude
Rises 03:26:07 0° 280° (W) 4,100 11.1 74.3°
Reaches altitude 10° 03:28:50 10° 270° (W) 3,421 10.8 74.9°
Maximum altitude 03:36:46 34° 209° (SSW) 2,765 10.9 76.6°
Drops below altitude 10° 03:48:43 10° 152° (SSE) 5,152 12.0 79.2°
Sets 03:54:01 0° 144° (SE) 6,455 12.4 80.3°
